TimeEDT,TemperatureF,Dew PointF,Humidity,Sea Level PressureIn,VisibilityMPH,Wind Direction,Wind SpeedMPH,Gust SpeedMPH,PrecipitationIn,Events,Conditions,WindDirDegrees,DateUTC
12:53 AM,48.0,46.0,93,28.97,6.0,West,13.8,26.5,0.01,Rain,Light Rain,270,2014-03-13 04:53:00
1:53 AM,46.9,44.1,90,28.99,4.0,NW,11.5,-,0.00,Rain,Light Rain,320,2014-03-13 05:53:00
2:09 AM,45.0,42.1,90,28.97,5.0,North,13.8,-,0.00,,Overcast,10,2014-03-13 06:09:00
2:53 AM,39.0,37.0,93,28.98,10.0,NNE,15.0,-,0.00,,Overcast,20,2014-03-13 06:53:00
3:53 AM,35.1,32.0,89,29.01,10.0,NNE,12.7,21.9,0.00,Rain,Light Rain,20,2014-03-13 07:53:00
4:53 AM,32.0,28.9,88,29.08,10.0,North,17.3,23.0,0.00,,Overcast,360,2014-03-13 08:53:00
5:53 AM,32.0,28.9,88,29.09,6.0,North,11.5,-,0.00,,Overcast,360,2014-03-13 09:53:00
6:08 AM,32.0,28.0,85,29.10,9.0,North,15.0,-,0.00,Rain,Light Freezing Rain,360,2014-03-13 10:08:00
6:26 AM,30.9,27.0,85,29.11,10.0,North,17.3,23.0,0.00,,Overcast,360,2014-03-13 10:26:00
6:53 AM,30.9,27.0,85,29.14,8.0,North,12.7,-,0.00,,Overcast,360,2014-03-13 10:53:00
7:10 AM,30.0,26.1,85,29.15,2.5,North,12.7,-,0.00,Snow,Light Snow,350,2014-03-13 11:10:00
7:29 AM,30.0,26.1,85,29.18,1.0,North,11.5,20.7,0.00,Snow,Light Snow,360,2014-03-13 11:29:00
7:32 AM,30.0,26.1,85,29.19,0.8,North,8.1,20.7,0.00,Snow,Light Snow,350,2014-03-13 11:32:00
7:35 AM,30.0,26.1,85,29.19,0.8,North,11.5,-,0.00,Snow,Light Snow,360,2014-03-13 11:35:00
7:49 AM,28.4,24.8,86,29.20,1.0,North,12.7,-,0.00,Snow,Light Snow,350,2014-03-13 11:49:00
7:53 AM,28.9,25.0,85,29.21,1.0,North,10.4,-,0.00,Snow,Light Snow,350,2014-03-13 11:53:00
8:02 AM,28.9,25.0,85,29.22,2.5,North,16.1,23.0,0.00,Snow,Light Snow,350,2014-03-13 12:02:00
8:29 AM,28.0,24.1,85,29.23,1.0,NW,16.1,23.0,0.00,Snow,Light Snow,310,2014-03-13 12:29:00
8:34 AM,27.0,23.0,85,29.24,0.8,NW,12.7,23.0,0.00,Snow,Light Snow,320,2014-03-13 12:34:00
8:41 AM,27.0,23.0,85,29.25,0.8,WNW,15.0,-,0.00,Snow,Light Snow,300,2014-03-13 12:41:00
8:53 AM,26.1,21.9,84,29.26,0.8,WNW,16.1,23.0,0.00,Snow,Light Snow,300,2014-03-13 12:53:00
8:59 AM,26.1,21.9,84,29.26,1.0,NW,15.0,24.2,0.00,Snow,Light Snow,310,2014-03-13 12:59:00
9:21 AM,25.0,21.0,85,29.29,0.8,NW,16.1,25.3,0.00,Snow,Light Snow,310,2014-03-13 13:21:00
9:53 AM,23.0,18.0,81,29.32,0.8,WNW,18.4,27.6,0.00,Snow,Light Snow,290,2014-03-13 13:53:00
10:16 AM,21.0,16.0,81,29.33,1.0,WNW,18.4,33.4,0.00,Snow,Light Snow,300,2014-03-13 14:16:00
10:35 AM,19.9,15.1,81,29.35,1.2,WNW,18.4,29.9,0.00,Snow,Light Snow,290,2014-03-13 14:35:00
10:53 AM,19.9,14.0,78,29.36,1.0,WNW,12.7,27.6,0.00,Snow,Light Snow,300,2014-03-13 14:53:00
11:03 AM,19.9,14.0,78,29.36,0.8,WNW,18.4,27.6,0.00,Snow,Light Snow,300,2014-03-13 15:03:00
11:16 AM,19.9,12.9,74,29.37,1.5,NW,21.9,29.9,0.00,Snow,Light Snow,310,2014-03-13 15:16:00
11:41 AM,19.9,14.0,78,29.38,0.8,WNW,16.1,26.5,0.00,Snow,Light Snow,300,2014-03-13 15:41:00
11:51 AM,19.4,14.0,80,29.39,1.2,NW,15.0,24.2,0.00,Snow,Light Snow,310,2014-03-13 15:51:00
11:53 AM,19.9,14.0,78,29.39,1.2,WNW,12.7,24.2,0.00,Snow,Light Snow,300,2014-03-13 15:53:00
12:10 PM,19.9,12.9,74,29.40,3.0,WNW,18.4,29.9,0.00,Snow,Light Snow,300,2014-03-13 16:10:00
12:38 PM,21.0,14.0,74,29.41,2.0,NW,13.8,-,0.00,Snow,Light Snow,310,2014-03-13 16:38:00
12:53 PM,21.9,14.0,72,29.42,2.5,WNW,15.0,24.2,0.00,Snow,Light Snow,300,2014-03-13 16:53:00
1:01 PM,21.0,12.9,71,29.43,4.0,NW,16.1,25.3,0.00,Snow,Light Snow,320,2014-03-13 17:01:00
1:53 PM,21.0,10.9,65,29.45,3.0,NW,17.3,26.5,0.00,Snow,Light Snow,310,2014-03-13 17:53:00
2:13 PM,19.9,10.9,68,29.46,2.5,NW,16.1,26.5,0.00,Snow,Light Snow,310,2014-03-13 18:13:00
2:53 PM,21.0,10.9,65,29.48,2.5,NW,16.1,29.9,0.00,Snow,Light Snow,310,2014-03-13 18:53:00
3:20 PM,21.0,10.0,63,29.50,7.0,NW,17.3,28.8,0.00,Snow,Light Snow,320,2014-03-13 19:20:00
3:53 PM,21.9,9.0,58,29.53,10.0,NW,19.6,28.8,0.00,,Overcast,310,2014-03-13 19:53:00
4:53 PM,24.1,7.0,48,29.56,10.0,NNW,19.6,32.2,N/A,,Overcast,330,2014-03-13 20:53:00
5:53 PM,24.1,6.1,46,29.61,10.0,NNW,21.9,28.8,N/A,,Mostly Cloudy,330,2014-03-13 21:53:00
6:53 PM,24.1,5.0,44,29.68,10.0,NW,18.4,26.5,N/A,,Partly Cloudy,310,2014-03-13 22:53:00
7:53 PM,23.0,6.1,48,29.73,10.0,NW,18.4,27.6,N/A,,Mostly Cloudy,320,2014-03-13 23:53:00
8:53 PM,23.0,5.0,46,29.80,10.0,NW,21.9,35.7,N/A,,Mostly Cloudy,310,2014-03-14 00:53:00
9:53 PM,21.9,1.9,42,29.86,10.0,NW,24.2,35.7,N/A,,Partly Cloudy,320,2014-03-14 01:53:00
10:53 PM,21.0,3.0,46,29.91,10.0,NW,20.7,39.1,N/A,,Partly Cloudy,320,2014-03-14 02:53:00
11:53 PM,21.0,-0.0,40,29.94,10.0,NNW,20.7,34.5,N/A,,Clear,330,2014-03-14 03:53:00